Regional Weather Roundup
Issued by NWS

Home | Current Version | Previous Version | Graphics & Text | Print | Product List | Glossary On
Versions: 1 2 3 4 5 6 7 8 9 10 11 12 13 14 15 16 17 18 19 20 21 22 23 24 25 26 27 28 29 30 31 32 33 34 35 36 37 38 39 40 41 42 43 44 45 46 47 48 49 50
000
ASUS43 KMKX 201711
RWRWI

WISCONSIN REGIONAL WEATHER ROUNDUP
NATIONAL WEATHER SERVICE MILWAUKEE/SULLIVAN WI
1100 AM CST MON FEB 20 2017

NOTE: "FAIR" INDICATES FEW OR NO CLOUDS BELOW 12,000 FEET WITH NO
SIGNIFICANT WEATHER AND/OR OBSTRUCTIONS TO VISIBILITY.

WIZ001-002-006>008-014>016-023>028-201800-
NORTHWEST WISCONSIN

CITY           SKY/WX    TMP DP  RH WIND       PRES   REMARKS
SUPERIOR ARPT  LGT RAIN  38  35  90 NE13      29.86F WCI  30
ASHLAND        PTSUNNY   52  41  66 S14G21    29.88F
HAYWARD        CLOUDY    49  40  71 SE10G20   29.87F
SIREN          CLOUDY    48  39  72 SE14G20   29.81F
CUMBERLAND     CLOUDY    43  37  81 SE15G22   29.84F
RICE LAKE      CLOUDY    46  40  79 E16G23    29.88F
CHETEK         CLOUDY    46  40  81 SE12G23   29.87F
LADYSMITH      CLOUDY    47  40  76 SE7       29.95R
EAU CLAIRE     PTSUNNY   49  43  80 SE12G18   29.86F
MENOMONIE      PTSUNNY   47  42  81 E9        29.85F
NEW RICHMOND   PTSUNNY   47  40  77 SE10      29.83S
OSCEOLA        PTSUNNY   49  43  78 SE8       29.84S
$$

WIZ003>005-009-010-017-018-201800-
NORTH CENTRAL WISCONSIN

CITY           SKY/WX    TMP DP  RH WIND       PRES   REMARKS
MANITOWISH WTR CLOUDY    44  36  73 SE12G17   29.96S
ARBOR VITAE    CLOUDY    45  36  70 SE10G20   29.99S
WOODRUFF       CLOUDY    45  36  70 SE10G20   29.99S
RHINELANDER    CLOUDY    44  36  73 E9        30.02S
EAGLE RIVER    CLOUDY    44  32  60 SE6       30.02R
LAND O LAKES   CLOUDY    46  34  62 SE10G17   30.03S
PHILLIPS       CLOUDY    45  37  74 SE12G17   29.94F
TOMAHAWK       CLOUDY    43  34  70 SE7       30.01S
MEDFORD        CLOUDY    43  35  73 SE14G23   29.96S
MERRILL        NOT AVBL
$$

WIZ029-030-035-036-043>047-201800-
CENTRAL WISCONSIN

CITY           SKY/WX    TMP DP  RH WIND       PRES   REMARKS
WAUSAU         CLOUDY    42  34  73 E12       30.02R
MOSINEE        CLOUDY    45  37  76 MISG        N/A
MARSHFIELD     CLOUDY    44  36  73 SE13      29.96F
STEVENS POINT  CLOUDY    42  35  75 E9        30.03F
WAUPACA        PTSUNNY   51  41  69 CALM      30.06R
WAUTOMA        CLOUDY    55  45  68 SE8       30.03
WISC RAPIDS    CLOUDY    51  43  74 SE10      30.00F
CAMP DOUGLAS   CLOUDY    53  46  77 E9        29.95F
$$

WIZ011>013-019>022-031-037>040-048>050-201800-
NORTHEAST WISCONSIN

CITY           SKY/WX    TMP DP  RH WIND       PRES   REMARKS
ANTIGO         CLOUDY    40  33  77 SE16G26   30.05S WCI  31
SHAWANO        MOSUNNY   47  35  64 E7        30.09F
OCONTO         CLOUDY    45  33  62 SE9       30.11F
STURGEON BAY   CLOUDY    46  34  62 SE13G20   30.14S
GREEN BAY      MOSUNNY   48  38  68 SE12      30.10F
MANITOWOC      MOSUNNY   42  34  73 MISG      30.13F
APPLETON       PTSUNNY   48  36  61 SE10      30.05F
CLINTONVILLE   CLOUDY    46  34  61 SE9       30.07S
OSHKOSH        CLOUDY    54  44  69 SE16      30.05R
$$

WIZ032>034-041-042-053>061-201800-
SOUTHWEST WISCONSIN

CITY           SKY/WX    TMP DP  RH WIND       PRES   REMARKS
LA CROSSE      CLOUDY    57  49  74 S10       29.90F
SPARTA         PTSUNNY   56  49  80 SE13      29.90F
VIROQUA        CLOUDY    53  49  89 SE17      29.92F
BOSCOBEL       CLOUDY    54  49  83 VRB7      29.95F HAZE
PRAIRIE DU CHI CLOUDY    51  47  87 E9        29.92F FOG
PLATTEVILLE    CLOUDY    52  52 100 SE16      29.96F
$$

WIZ056-057-062-063-064-067-068-201800-
SOUTH CENTRAL WISCONSIN

CITY           SKY/WX    TMP DP  RH WIND       PRES   REMARKS
REEDSBURG      CLOUDY    54  49  86 SE8       29.97F
BARABOO/DELLS  CLOUDY    53  46  78 SE12      29.99F HAZE
LONE ROCK      PTSUNNY   54  48  80 SE12      29.97F HAZE
MINERAL POINT  CLOUDY    52  52 100 SE10      29.97F FOG
MADISON        CLOUDY    53  47  79 S16       30.01F
MIDDLETON      CLOUDY    55  49  79 SE12      30.01F
WATERTOWN      CLOUDY    55  49  79 SE10      30.04F
MONROE         CLOUDY    55  48  76 SE15      30.00F
JANESVILLE     MOSUNNY   57  48  72 SE13      30.04F
$$

WIZ051-052-058>065-066-070>072-201800-
SOUTHEAST WISCONSIN

CITY           SKY/WX    TMP DP  RH WIND       PRES   REMARKS
MILWAUKEE      PTSUNNY   51  42  71 SE10      30.10F
WAUKESHA       MOSUNNY   54  45  71 SE12      30.09F FOG
MILWAUKEE/TIMM SUNNY     54  43  66 SE10      30.10S
RACINE         CLOUDY    48  41  76 S16       30.12F HAZE
KENOSHA        MOSUNNY   53  45  74 SE8       30.09F HAZE
FOND DU LAC    CLOUDY    55  43  63 SE14      30.05S
SHEBOYGAN      MOSUNNY   45  35  68 SE8       30.11F
WEST BEND      CLOUDY    52  43  71 SE8       30.09S
JUNEAU         CLOUDY    55  48  77 SE13      30.05F
$$

LSZ147-162-201800-
LAKE SUPERIOR

STATION/POSITION TIME  TEMP    WIND        PRES    WAVE
                       AIR SEA DIR/SP/G            HT/PER
                 (UTC) (F)     (DEG/KT/KT) (MB)    (FT/S)
DEVILS ISLAND    1700   44      70/  8/  8 1012.7F
PORT WING        1640   36      60/  5/ 10 1012.2S
SAXON HARBOR     1640   52     170/  7/ 19 1011.5F
$$

LMZ867-665-643>646-201800-
LAKE MICHIGAN

STATION/POSITION TIME  TEMP    WIND        PRES    WAVE
                       AIR SEA DIR/SP/G            HT/PER
                 (UTC) (F)     (DEG/KT/KT) (MB)    (FT/S)
CHAMBERS ISLAND  1640   44     110/  5/ 10 1020.3F
NORTHPORT PIER   1640   35     140/  4/  5 1021.3F
SISTER BAY       1635   45     150/ 11/ 15   N/A
ALGOMA LAKESHORE 1525             CALM       N/A
KEWAUNEE LAKESHO 1648   39     170/  9/ 10 1020.3R
SHEBOYGAN LAKESH 1700   39     170/  6/  7 1020.3F
PORT WASHINGTON  1640   42      70/  4/  5 1020.7F
MILWAUKEE LAKESH 1650   40     140/ 11/ 12   N/A
KENOSHA   LAKESH 1700   40     170/ 13/ 14 1019.3
$$

TC  - TEMPERATURE IN CELSIUS
VSB - VISIBILITY IN STATUTE MILES
WCI - WIND CHILL INDEX
HX  - HEAT INDEX




USA.gov is the U.S. government's official web portal to all federal, state and local government web resources and services.